Main page
Satellite images Climate Cyclones Lightning AirportsFAQ Languages Contact Newsletter About
Weather : Europe Africa North America South America Asia Australia-Oceania Others

hat-yai-th, Langkawi, Langkawi International Airport

latitude: , longitude: Malaysia, elevation: 06-20N m


METAR: WMKL 200700Z 29006KT 240V350 9999 FEW017CB SCT022 BKN280 33/28 Q1006 RESHRA